Regional Weather Roundup
Issued by NWS Goodland, KS

Home | Current Version | Previous Version | Text Only | Print | Product List | Glossary Off
Versions: 1 2 3 4 5 6 7 8 9 10 11 12 13 14 15 16 17 18 19 20 21 22 23 24 25 26 27 28 29 30 31 32 33 34 35 36 37 38 39 40 41 42 43 44 45 46 47 48 49 50

000
ASUS43 KGLD 280559
RWRGLD

GOODLAND FORECAST AREA HOURLY WEATHER ROUNDUP
NATIONAL WEATHER SERVICE GOODLAND KS
1200 AM MDT THU AUG 28 2014

...OFFICIAL OBSERVATIONS...

CITY           SKY/WX    TMP DP  RH WIND       PRES   REMARKS
GOODLAND KS    CLOUDY    68  66  93 SW5       30.03R
HILL CITY KS   FAIR      66  64  93 E5        29.99F
IMPERIAL NEB   LGT RAIN  63  59  87 N13G20    30.02F
MCCOOK NEB     MOCLDY    66  63  90 W25G32    30.03R
AKRON CO       LGT RAIN  59  57  93 W21       30.15S
BURLINGTON CO  LGT RAIN  62  57  83 NW21G28   30.07R
LIMON CO       NOT AVBL
$$

...UNOFFICIAL OBSERVATIONS...

CITY           SKY/WX    TMP DP  RH WIND       PRES   REMARKS
COLBY KS       CLOUDY    66  66 100 E8        30.00F FOG
GOVE KS          N/A     70  32  24 CALM        N/A
NORTON KS      MOCLDY    66  63  88 E8        29.96F
SHARON SPRINGS   N/A     69  64  85 S9G16       N/A
WAKEENEY KS      N/A     70  67  90 MISG        N/A
KIT CARSON CO    N/A     63  58  84 MISG        N/A
YUMA CO          N/A     61  61 100 N5          N/A
$$


USA.gov is the U.S. government's official web portal to all federal, state and local government web resources and services.